Location: Heppenheim
(49.6410°N, 8.6370°E)
Time: 15:33:22
(UTC+02:00)

ISS - Pass Details

Date: 13 May 2026
Orbit: 414 x 424 km, 51.6° (Epoch: 21 May)

Event Time Altitude Azimuth Distance (km) Brightness Sun altitude
Rises 23:19:31 0° 276° (W) 2,351 0.6 -16.6°
Reaches altitude 10° 23:21:38 10° 280° (W) 1,489 -0.4 -16.8°
Maximum altitude 23:24:56 59° 1° (N) 487 -3.2 -17.1°
Enters shadow 23:27:25 16° 79° (E) 1,163 -1.7 -17.2°
